Voltar ao catálogo

FENGYUN 1C DEB

AtivoSSO
NORAD 30075·DEBRIS·🇨🇳 China

Lançado May 10, 1999 de Taiyuan Satellite Launch Center

Loading…

Próximas Passagens (próximas 24 horas)

TLE

AtualizadoSource: Space-Track

Época: Sep 14, 2026, 10:24 UTC

1 30075U 99025QC  26257.43372921  .00000066  00000-0  83246-4 0  9992
2 30075  99.3243 315.0385 0091380 152.6388 221.3480 13.92618857999025

Acompanhe FENGYUN 1C DEB em tempo real com AllMySat

Download on the App Store